[[{"header":{"parameterUnit":"m.s-1","parameterCategory":1,"la1":30.2991,"la2":30.254,"lo1":-89.0895,"lo2":-89.0444,"dy":0.0017,"dx":0.0017,"nx":28,"ny":28,"refTime":"2023-03-30T15:00:00:Z","depth":0,"parameterNumber":2,"parameterNumberName":"U-component_of_WINDS"},"data":[0,0,0,0,0,0,0,0,0,0,0,0,0,0,0,0,0,0,0,0,0,0,0,0,0,0,0,0,0,0,0,0,0,0,0,0,0,0,0,0,0,0,0,0,0,0,0,0,0,0,0,0,0,0,0,0,0,0,-6.178,-6.178,0,-6.1791,-6.1791,-6.1791,-6.1679,-6.1676,-6.1673,-6.167,-6.1679,-6.1682,-6.1685,0,0,0,0,0,0,0,0,0,0,0,0,0,-6.1664,-6.1667,-6.178,-6.178,-6.1781,-6.1791,-6.1791,-6.1791,-6.168,-6.1676,-6.1672,-6.1669,-6.1678,-6.1682,-6.1686,0,0,0,0,0,0,0,0,0,0,0,0,0,-6.1699,-6.1668,-6.178,-6.1726,-6.1721,-6.1791,-6.1791,-6.1791,-6.168,-6.1676,-6.1671,-6.1667,-6.1677,-6.1682,-6.1686,-6.1807,0,0,-6.17,-6.1702,0,0,0,0,0,0,0,0,-6.1697,-6.1703,-6.1734,-6.173,-6.1725,-6.1729,-6.1753,-6.1796,-6.1681,-6.1696,-6.167,-6.1665,-6.1699,-6.1702,-6.1714,-6.1808,-6.1808,-6.1701,-6.1704,-6.1706,-6.1707,0,0,0,0,0,0,0,-6.1695,-6.1702,-6.1784,-6.1735,-6.1729,-6.1702,-6.1701,-6.1761,-6.1723,-6.1694,-6.1686,-6.1689,-6.1696,-6.171,-6.1713,-6.1808,-6.1701,-6.1705,-6.1708,-6.171,-6.2002,-6.2007,0,0,0,0,0,0,-6.17,-6.1701,-6.1784,-6.1785,-6.1699,-6.1707,-6.1707,-6.1732,-6.1722,-6.1716,-6.1693,-6.1684,-6.1704,-6.1708,-6.1713,-6.1853,-6.1706,-6.171,-6.1713,-6.1997,-6.2003,-6.2009,0,0,0,0,0,0,-6.1698,-6.1708,-6.1783,-6.1741,-6.1748,-6.1714,-6.1743,-6.1735,-6.1748,-6.1721,-6.1714,-6.1714,-6.1701,-6.1707,-6.1785,-6.1852,-6.1712,-6.1716,-6.1991,-6.1999,-6.2006,-6.2134,0,0,0,0,0,0,-6.1695,-6.1708,-6.1753,-6.1742,-6.1751,-6.1855,-6.1748,-6.1738,-6.1757,-6.1745,-6.1739,-6.1734,-6.1697,-6.1778,-6.179,-6.1856,-6.172,-6.1985,-6.1995,-6.2003,-6.2124,-6.2145,-6.2163,0,0,0,0,0,-6.1691,-6.1789,-6.1756,-6.1767,-6.1807,-6.1859,-6.1864,-6.182,-6.1763,-6.1808,-6.1791,-6.1734,-6.1844,-6.1787,-6.1799,-6.1867,-6.198,-6.1992,-6.2003,-6.2115,-6.2141,-6.2163,0,0,0,0,0,0,-6.1807,-6.1786,-6.175,-6.1847,-6.1856,-6.184,-6.1895,-6.185,-6.1874,-6.1862,-6.1807,-6.1807,-6.1894,-6.1889,-6.1827,-6.1984,-6.1902,-6.1916,-6.1983,-6.2008,-6.2027,-6.2025,-6.1724,0,0,0,0,0,-6.1844,-6.1889,-6.1868,-6.1956,-6.1962,-6.1929,-6.195,-6.1916,-6.1923,-6.1926,-6.1914,-6.1923,-6.1959,-6.1984,-6.2016,-6.2125,-6.2121,-6.2178,-6.2198,-6.2214,-6.2225,-6.2281,-6.2306,-6.2045,-6.2045,-6.2045,0,0,-6.192,-6.1915,-6.1946,-6.1979,-6.1982,-6.2028,-6.1932,-6.1986,-6.202,-6.1934,-6.2005,-6.1999,-6.2005,-6.2099,-6.2139,-6.2097,-6.2298,-6.2228,-6.2242,-6.2244,-6.2296,-6.232,-6.2342,-6.2053,-6.2051,-6.205,0,0,-6.2082,-6.2084,-6.2156,-6.2162,-6.2168,-6.2146,-6.2164,-6.2156,-6.2148,-6.2221,-6.2157,-6.2198,-6.2262,-6.2268,-6.228,-6.245,-6.2397,-6.2463,-6.2564,-6.262,-6.264,-6.2658,-6.2716,-6.2738,-6.2475,-6.2475,-6.2475,0,-6.2175,-6.2243,-6.2199,-6.2257,-6.2273,-6.2201,-6.2273,-6.2281,-6.2298,-6.2311,-6.2264,-6.2344,-6.2343,-6.2437,-6.2478,-6.2492,-6.2509,-6.246,-6.2641,-6.2658,-6.2674,-6.2729,-6.2751,-6.2483,-6.2482,-6.2481,-6.248,0,-6.2357,-6.2406,-6.2464,-6.2482,-6.2506,-6.2572,-6.2537,-6.2567,-6.2533,-6.2516,-6.2591,-6.2589,-6.2619,-6.264,-6.2607,-6.273,-6.2703,-6.265,-6.2565,-6.2707,-6.2758,-6.2779,-6.2493,-6.2491,-6.2489,-6.2487,0,0,-6.2586,-6.2583,-6.2604,-6.2612,-6.2616,-6.2652,-6.2716,-6.2746,-6.2772,-6.2788,-6.2838,-6.2896,-6.2848,-6.2861,-6.2829,-6.2879,-6.3011,-6.2819,-6.2819,-6.2852,-6.3144,-6.3181,-6.3206,-6.2979,-6.2983,-6.2986,-6.3143,0,-6.2742,-6.2848,-6.2812,-6.292,-6.2964,-6.2898,-6.2953,-6.2962,-6.2949,-6.2984,-6.297,-6.3011,-6.2945,-6.2953,-6.3,-6.2985,-6.3068,-6.2974,-6.3024,-6.3026,-6.3019,-6.3233,-6.3271,-6.3419,-6.3163,-6.3166,-6.3168,0,-6.2935,-6.2959,-6.3072,-6.307,-6.3087,-6.3137,-6.3162,-6.3198,-6.3207,-6.3194,-6.3212,-6.3171,-6.3232,-6.3153,-6.3236,-6.3173,-6.3192,-6.3189,-6.3194,-6.3193,-6.3102,-6.3234,-6.3465,-6.3486,-6.32,-6.3197,-6.3195,0,-6.3087,-6.3149,-6.3224,-6.3233,-6.3233,-6.3269,-6.3271,-6.3276,-6.3297,-6.332,-6.3333,-6.3364,-6.338,-6.3405,-6.3373,-6.3318,-6.3461,-6.3379,-6.3451,-6.3452,-6.3479,-6.3477,-6.3713,-6.35,-6.3499,-6.3499,-6.3499,0,-6.3261,-6.3332,-6.3292,-6.3338,-6.3416,-6.3376,-6.3454,-6.3448,-6.3454,-6.3497,-6.3444,-6.3486,-6.3443,-6.3482,-6.3458,-6.353,-6.3539,-6.3529,-6.3521,-6.3531,-6.3532,-6.3539,-6.3527,-6.3505,-6.3504,-6.3502,-6.3501,0,-6.3442,-6.3418,-6.3495,-6.349,-6.3491,-6.3548,-6.3543,-6.3586,-6.3571,-6.3627,-6.3638,-6.3615,-6.3658,-6.363,-6.3673,-6.3657,-6.3751,-6.3731,-6.3748,-6.374,-6.3813,-6.3805,-6.4058,-6.4088,-6.386,-6.3862,-6.3864,0,-6.3552,-6.3605,-6.3606,-6.3632,-6.3637,-6.368,-6.3702,-6.3666,-6.3691,-6.3707,-6.3748,-6.3786,-6.3814,-6.3886,-6.3873,-6.3906,-6.3884,-6.3971,-6.3888,-6.3897,-6.3881,-6.3876,-6.3881,-6.3985,-6.3988,-6.399,-6.3992,0,-6.3749,-6.3735,-6.3769,-6.38,-6.3828,-6.3851,-6.3868,-6.3893,-6.3857,-6.3888,-6.3932,-6.3954,-6.3999,-6.4038,-6.4066,-6.4068,-6.4024,-6.4019,-6.4037,-6.4045,-6.4051,-6.4046,-6.3788,-6.4012,-6.401,-6.4008,-6.4007,-6.4007,-6.3894,-6.3939,-6.3947,-6.3987,-6.3997,-6.4016,-6.4056,-6.4047,-6.4083,-6.4117,-6.4095,-6.4146,-6.4156,-6.419,-6.4198,-6.4237,-6.4202,-6.4229,-6.4234,-6.424,-6.4249,-6.405,-6.4243,-6.4242,-6.4242,-6.4241,-6.4241,0,-6.4086,-6.4089,-6.4127,-6.4154,-6.4186,-6.4145,-6.4164,-6.4193,-6.4239,-6.4253,-6.4282,-6.4333,-6.4372,-6.4363,-6.4398,-6.4431,-6.4412,-6.4441,-6.4436,-6.4437,-6.428,-6.426,-6.4456,-6.4456,-6.4456,-6.4456,-6.4456,-6.4456,-6.4188,-6.4261,-6.4249,-6.4327,-6.4329,-6.4379,-6.4393,-6.4411,-6.4421,-6.448,-6.4512,-6.4508,-6.4513,-6.4548,-6.4581,-6.4578,-6.4591,-6.4627,-6.4616,-6.4469,-6.4448,-6.4427,-6.4407,-6.4632,-6.4632,-6.4769,-6.477,-6.4771]},{"header":{"parameterUnit":"m.s-1","parameterCategory":1,"la1":30.2991,"la2":30.254,"lo1":-89.0895,"lo2":-89.0444,"dy":0.0017,"dx":0.0017,"nx":28,"ny":28,"refTime":"2023-03-30T15:00:00:Z","depth":0,"parameterNumber":3,"parameterNumberName":"V-component_of_WINDS"},"data":[0,0,0,0,0,0,0,0,0,0,0,0,0,0,0,0,0,0,0,0,0,0,0,0,0,0,0,0,0,0,0,0,0,0,0,0,0,0,0,0,0,0,0,0,0,0,0,0,0,0,0,0,0,0,0,0,0,0,3.0777,3.0777,0,3.082,3.082,3.0821,3.0881,3.0882,3.0883,3.0884,3.0921,3.0921,3.0921,0,0,0,0,0,0,0,0,0,0,0,0,0,3.0742,3.0742,3.0777,3.0777,3.0778,3.082,3.082,3.0821,3.0881,3.0882,3.0883,3.0884,3.0921,3.0921,3.0921,0,0,0,0,0,0,0,0,0,0,0,0,0,3.0768,3.0742,3.0777,3.0813,3.0817,3.082,3.082,3.0821,3.088,3.0882,3.0883,3.0885,3.0921,3.0921,3.0921,3.0891,0,0,3.0922,3.0922,0,0,0,0,0,0,0,0,3.0766,3.0769,3.0807,3.081,3.0814,3.0847,3.0822,3.0844,3.088,3.0856,3.0884,3.0886,3.0895,3.0897,3.0902,3.0893,3.0894,3.0922,3.0922,3.0922,3.0922,0,0,0,0,0,0,0,3.0764,3.0767,3.0794,3.0807,3.0812,3.0825,3.0831,3.0826,3.0866,3.0858,3.0863,3.0867,3.0897,3.0901,3.0903,3.0895,3.0922,3.0922,3.0922,3.0922,3.0865,3.0863,0,0,0,0,0,0,3.0758,3.0766,3.0792,3.0795,3.0794,3.0825,3.0831,3.0835,3.0866,3.0873,3.0866,3.087,3.0901,3.0903,3.0905,3.0872,3.0922,3.0922,3.0922,3.0866,3.0864,3.0863,0,0,0,0,0,0,3.0757,3.076,3.0791,3.0782,3.0787,3.0824,3.0827,3.0835,3.0839,3.0872,3.0879,3.0863,3.0902,3.0904,3.0895,3.0874,3.0922,3.0922,3.0868,3.0866,3.0863,3.0806,0,0,0,0,0,0,3.0756,3.0759,3.0749,3.0781,3.0787,3.0781,3.0826,3.0834,3.084,3.0846,3.0872,3.0877,3.0903,3.0894,3.0895,3.0875,3.0922,3.087,3.0867,3.0864,3.081,3.0802,3.0795,0,0,0,0,0,3.0754,3.0729,3.0748,3.0751,3.0775,3.078,3.0783,3.0815,3.0838,3.0827,3.0849,3.0876,3.0877,3.0893,3.0894,3.0874,3.0871,3.0868,3.0864,3.0813,3.0803,3.0795,0,0,0,0,0,0,3.069,3.0733,3.0755,3.074,3.0756,3.079,3.0777,3.0804,3.0812,3.0817,3.0855,3.086,3.0846,3.0859,3.0876,3.0847,3.0878,3.0875,3.0839,3.083,3.0823,3.0819,3.0922,0,0,0,0,0,3.0674,3.0677,3.0714,3.0696,3.0704,3.0739,3.0742,3.0767,3.0784,3.079,3.0811,3.0825,3.0829,3.083,3.0835,3.0812,3.0819,3.0799,3.0792,3.0785,3.0782,3.0772,3.0764,3.0851,3.0851,3.0851,0,0,3.0641,3.0665,3.0664,3.0684,3.07,3.07,3.0744,3.0742,3.0742,3.0789,3.0782,3.0798,3.0817,3.0801,3.0795,3.0811,3.0759,3.0781,3.0776,3.0776,3.0767,3.0759,3.0752,3.0849,3.0849,3.085,0,0,3.0582,3.06,3.0589,3.0604,3.0628,3.0652,3.065,3.068,3.0694,3.0688,3.0724,3.0724,3.0729,3.0741,3.0748,3.0696,3.0722,3.0696,3.0657,3.0647,3.064,3.0635,3.0616,3.0609,3.0692,3.0692,3.0692,0,3.0537,3.054,3.0579,3.0576,3.0584,3.0629,3.0618,3.063,3.0653,3.0657,3.0676,3.0685,3.07,3.0689,3.0677,3.068,3.0678,3.0693,3.0639,3.0633,3.0628,3.0611,3.0604,3.0689,3.0689,3.069,3.069,0,3.0485,3.0487,3.0474,3.0499,3.0506,3.0498,3.0534,3.0536,3.056,3.0582,3.0576,3.0597,3.0608,3.0607,3.0628,3.0598,3.0608,3.0632,3.0664,3.0616,3.0601,3.0595,3.0685,3.0686,3.0687,3.0687,0,0,3.0384,3.0432,3.0427,3.044,3.0471,3.0472,3.0467,3.048,3.0481,3.0496,3.0492,3.0497,3.0521,3.0528,3.0552,3.0543,3.0502,3.0569,3.057,3.0556,3.0471,3.0452,3.0444,3.052,3.0519,3.0518,3.0469,0,3.033,3.0326,3.0361,3.0346,3.0349,3.0394,3.0389,3.0407,3.0428,3.0432,3.0454,3.0457,3.0488,3.0493,3.0486,3.0508,3.0485,3.0512,3.0515,3.0515,3.0509,3.0436,3.0416,3.0369,3.0464,3.0463,3.0462,0,3.0266,3.0281,3.0268,3.0302,3.0304,3.03,3.0316,3.0319,3.0341,3.0356,3.0367,3.0396,3.0392,3.0423,3.0418,3.0436,3.044,3.0451,3.045,3.0451,3.0485,3.0435,3.0355,3.0348,3.0453,3.0454,3.0454,0,3.0195,3.0211,3.0206,3.0215,3.0254,3.025,3.0266,3.029,3.0296,3.0309,3.0314,3.0325,3.0331,3.0339,3.037,3.0391,3.0362,3.0396,3.0374,3.0373,3.0365,3.0365,3.0285,3.0368,3.0368,3.0368,3.0368,0,3.0131,3.0121,3.0175,3.0171,3.0162,3.0202,3.0191,3.0211,3.0232,3.0232,3.0271,3.027,3.0311,3.0315,3.0339,3.0331,3.0333,3.0345,3.0352,3.0342,3.034,3.0344,3.0348,3.0366,3.0367,3.0367,3.0367,0,3.0049,3.0085,3.0082,3.0121,3.013,3.0122,3.0154,3.0152,3.0176,3.0176,3.0179,3.0216,3.0222,3.0255,3.0267,3.0284,3.0268,3.0281,3.0261,3.0266,3.0242,3.0244,3.0161,3.0152,3.024,3.024,3.0239,0,3.0006,3.0,3.0039,3.0044,3.0059,3.0065,3.0073,3.0113,3.0119,3.0144,3.0139,3.0149,3.0159,3.0167,3.0194,3.0205,3.0218,3.0189,3.022,3.0211,3.0218,3.0218,3.0218,3.0181,3.018,3.0179,3.0179,0,2.9927,2.9945,2.9956,2.9974,2.9983,2.9997,3.0014,3.0015,3.006,3.0064,3.0073,3.0081,3.0097,3.0106,3.0122,3.0136,3.0164,3.0169,3.0165,3.0154,3.0144,3.015,3.0243,3.017,3.0171,3.0172,3.0172,3.0173,2.9863,2.9861,2.9889,2.99,2.9918,2.9933,2.9934,2.996,2.9968,2.9986,3.0008,3.0014,3.0037,3.0061,3.0074,3.0078,3.0094,3.0087,3.0086,3.0084,3.0079,3.0143,3.0081,3.0081,3.0081,3.0082,3.0082,0,2.9786,2.9807,2.9817,2.9842,2.985,2.9879,2.99,2.9905,2.991,2.993,2.9941,2.9951,2.9961,2.999,3.0003,3.0,3.0014,3.0002,3.0003,3.0006,3.0063,3.0066,2.9992,2.9992,2.9992,2.9992,2.9992,2.9992,2.9747,2.9745,2.9767,2.9774,2.9795,2.9803,2.9812,2.9827,2.9843,2.9854,2.9864,2.9883,2.9907,2.9922,2.9932,2.9941,2.9943,2.9928,2.994,2.9993,3.0002,3.001,3.0013,2.9928,2.9928,2.9882,2.9882,2.9881]}]]